Dewpoint
58 53 50 37 23 16 14 16 18 19 28 42 44 39 37 36 41 40 41 36 36 37 38 45 60 62 64 66 69 70 70 70 70 70 70 71 71 70 70 70 70 71 71 71 71 71 70 70 69
58 49 38 29 18 12 15 19 18 29 38 39 36 37 35 34 35 36 35 34 33 34 35 42 56 59 61 63 65 68 69 70 70 70 70 70 71 71 70 70 70 70 71 71 71 71 72 72 71
50 46 32 27 17 15 18 21 23 31 33 36 35 34 31 29 34 34 32 32 30 32 32 39 53 55 57 60 62 63 66 67 69 69 69 69 69 70 71 70 71 71 71 71 72 72 71 71 71
40 36 29 17 17 21 20 24 27 29 31 33 34 30 30 31 33 32 30 30 29 29 29 36 49 51 53 56 58 60 62 64 65 66 68 70 69 68 68 70 70 71 71 71 72 72 71 71 71
36 31 22 21 19 24 28 29 30 30 30 30 35 31 27 29 30 30 28 28 27 27 28 30 45 47 49 52 54 56 58 61 61 62 64 66 68 69 68 69 69 69 70 71 71 70 71 71 71
33 25 18 18 20 24 30 30 28 29 29 28 31 27 25 28 27 28 27 27 28 26 26 27 38 43 45 47 50 52 54 56 56 59 59 62 64 66 68 68 68 69 69 70 70 70 70 70 70
32 27 21 23 21 27 29 31 28 27 26 25 28 27 25 23 26 27 25 24 24 26 25 25 27 32 39 42 46 47 50 51 52 54 56 58 59 61 64 66 68 68 69 69 70 70 70 70 70
35 28 21 28 21 26 28 31 29 27 24 27 25 22 22 21 23 24 23 22 22 22 24 23 24 25 26 28 41 43 45 46 47 49 51 54 55 57 59 61 63 67 69 68 68 69 70 70 70
35 26 25 28 28 26 26 29 29 26 23 22 22 20 20 21 21 21 20 20 21 21 21 23 23 23 24 25 31 37 40 42 43 43 46 50 49 50 51 54 59 62 66 68 68 69 69 69 68
33 28 28 29 30 25 23 25 27 24 24 23 20 20 20 18 18 19 19 19 19 19 20 22 23 23 23 23 27 29 31 33 34 36 38 46 45 46 48 52 54 57 60 64 68 68 68 67 68
29 29 28 28 31 27 23 22 25 23 22 23 20 18 18 18 18 18 19 18 18 19 20 21 21 22 22 23 25 27 30 31 32 33 36 40 42 42 46 47 48 52 54 57 59 66 67 66 66
26 29 29 29 28 28 23 22 19 21 22 22 20 20 18 17 17 18 18 18 19 19 19 20 22 21 21 23 23 24 25 29 31 31 35 37 38 38 43 44 45 47 51 53 55 62 65 65 65
24 28 27 26 24 22 22 21 19 18 19 20 18 16 16 15 14 15 16 18 19 19 20 20 20 21 21 21 22 23 22 26 29 29 32 35 33 36 40 40 43 45 48 50 51 54 59 64 65
26 25 25 28 25 23 20 19 20 18 18 18 14 13 13 13 15 15 16 16 16 18 20 21 20 20 21 21 22 22 22 23 27 27 29 34 32 35 36 37 41 43 45 46 49 52 55 64 64
24 20 20 18 19 23 22 20 16 17 14 12 12 11 13 13 13 14 16 17 17 18 19 20 20 21 19 20 22 23 22 23 23 25 27 32 30 33 33 35 38 41 41 45 48 50 53 64 64
27 24 21 12 15 23 14 13 16 13 10 10 9 9 11 14 15 14 16 17 18 18 18 19 19 21 20 20 23 22 22 23 23 23 26 28 28 30 31 33 36 38 40 43 46 48 49 56 63
9 11 18 10 6 8 8 12 15 10 8 7 9 10 9 12 14 15 16 17 18 18 18 19 19 21 20 20 23 22 22 23 22 23 25 24 27 28 28 31 34 36 39 39 42 44 46 49 58
8 -5 -8 -7 1 -1 -0 10 12 8 7 7 8 9 10 12 12 15 17 17 18 19 19 19 19 20 20 21 21 21 21 22 22 23 24 23 27 26 27 30 31 34 37 37 39 41 44 46 50
-5 -6 -9 -4 1 -5 -2 11 9 7 7 7 8 9 10 11 13 15 15 17 17 18 18 18 19 19 20 20 20 19 19 20 21 22 23 22 25 25 26 28 30 32 34 35 36 40 41 44 52
-7 -10 -11 -6 2 -4 -6 -5 7 7 8 10 10 10 11 12 13 12 15 14 17 17 17 17 18 19 20 21 20 20 19 19 21 22 21 22 22 25 24 27 28 30 31 33 35 36 38 40 45
-7 -6 -5 -5 0 -0 -1 0 4 7 9 10 11 12 12 13 13 11 12 14 15 16 16 16 17 19 20 20 21 20 19 18 18 18 20 21 21 24 26 25 27 29 30 31 33 34 35 37 39
-14 -1 -2 -2 -4 -11 -3 -10 3 6 9 9 10 10 12 13 13 12 12 14 15 15 17 18 18 19 19 19 20 19 18 17 17 19 20 20 21 22 24 25 26 27 28 30 30 31 35 36 36
-7 1 0 -0 -2 -2 -2 -2 3 8 8 6 4 9 12 13 14 15 16 16 17 16 16 17 18 19 20 20 20 19 19 19 19 19 18 19 20 21 21 23 24 25 27 28 28 30 32 35 36
1 -2 -1 0 -1 -3 -4 -1 -2 3 0 -1 4 10 12 11 14 15 16 17 17 16 16 17 17 18 18 19 20 20 19 19 18 18 18 18 20 21 21 21 23 24 25 26 27 28 31 32 34
-1 -2 -1 -5 -4 -6 -0 -0 -1 -2 0 2 5 9 10 11 13 14 14 14 16 17 17 16 15 16 17 17 18 19 19 19 20 19 19 19 19 19 20 20 22 23 24 25 25 25 27 30 33
-2 -4 -1 -26 -12 -9 1 -12 -7 -1 -0 4 8 9 14 13 13 13 14 14 15 16 16 16 17 17 18 17 18 19 19 20 19 20 20 19 19 20 20 20 21 22 23 24 25 24 26 28 32
-5 -4 -3 -6 -6 -5 -3 0 -2 10 11 10 9 14 11 11 12 12 12 14 14 12 14 14 15 16 17 18 19 18 18 19 20 19 20 20 21 20 19 20 21 22 23 23 24 23 24 26 28
-5 -4 -5 3 -14 -13 -13 -12 -9 -7 1 5 3 3 6 10 10 8 9 10 8 9 9 12 16 16 17 17 18 18 19 19 19 19 19 20 20 21 20 21 21 22 22 22 23 23 23 25 28
-0 1 -5 -2 -4 -15 -14 -14 -7 -4 -4 1 1 5 5 7 8 8 8 7 7 8 9 10 12 15 16 17 18 18 19 19 19 20 20 20 20 20 20 20 21 21 21 22 22 23 22 24 26
1 1 -3 -5 -12 -6 -9 -9 -3 -5 -3 1 4 10 7 6 6 6 6 7 7 7 8 9 10 11 15 16 18 18 19 19 19 20 20 20 20 20 20 20 21 21 21 22 22 21 23 24 25
Lifted_Index
5 7 8 7 5 4 3 4 6 6 6 5 5 5 5 5 5 6 10 12 13 11 8 4 1 -1 -2 -2 -2 -3 -3 -4 -4 -4 -5 -5 -6 -5 -5 -4 -4 -4 -4 -4 -4 -4 -3 -3 -3
6 7 8 7 5 3 3 5 6 7 6 6 5 5 5 5 5 7 10 13 13 12 8 5 1 -1 -2 -2 -2 -2 -3 -3 -4 -4 -4 -5 -5 -5 -5 -4 -4 -4 -4 -4 -4 -4 -4 -3 -3
8 8 8 6 5 3 4 6 7 7 7 6 6 5 5 6 7 9 13 15 14 13 10 7 3 0 -1 -1 -2 -2 -2 -2 -3 -3 -3 -4 -4 -4 -4 -4 -4 -4 -4 -4 -4 -4 -4 -4 -3
8 8 7 6 5 5 6 7 8 8 8 7 7 6 7 10 12 14 16 16 15 14 12 10 6 3 1 -0 -1 -1 -1 -2 -2 -2 -3 -3 -3 -3 -4 -4 -4 -4 -4 -4 -4 -4 -4 -3 -3
8 8 7 5 5 6 7 8 8 8 8 8 8 7 10 14 17 17 18 17 16 16 15 13 9 6 3 2 0 -1 -1 -1 -1 -1 -2 -2 -2 -2 -3 -3 -3 -4 -4 -4 -4 -4 -4 -3 -3
7 7 6 5 6 7 8 8 8 8 8 8 8 8 11 15 18 19 19 19 18 17 17 15 12 10 8 5 3 1 0 -0 -1 -1 -1 -1 -1 -1 -2 -2 -3 -3 -4 -4 -4 -4 -4 -3 -3
7 6 6 5 6 7 8 8 9 9 9 9 9 9 11 15 18 20 20 20 19 19 18 17 16 15 13 11 8 6 3 1 0 -0 -0 -1 -1 -1 -1 -1 -2 -3 -3 -3 -4 -4 -3 -3 -3
8 7 6 5 6 7 8 8 9 9 9 10 10 10 12 15 19 20 20 20 20 20 20 19 19 18 17 16 14 11 8 5 3 2 1 -0 -1 -1 -1 -0 -1 -1 -2 -3 -3 -3 -3 -3 -3
8 7 6 6 7 7 8 9 9 9 9 10 11 12 15 18 19 19 18 18 19 20 21 21 21 20 20 19 18 16 13 11 8 5 3 2 1 -0 -1 -1 -0 -0 -1 -2 -2 -2 -3 -2 -3
8 7 7 8 8 9 9 9 9 9 9 10 11 14 17 18 18 17 17 17 18 20 21 22 22 22 22 21 20 19 17 16 14 11 8 5 3 2 0 -0 -1 -0 -0 -1 -1 -2 -2 -2 -2
8 8 8 9 10 10 10 10 10 10 10 11 13 15 17 18 17 17 18 19 20 22 23 24 24 24 23 23 22 21 20 19 18 16 14 10 7 4 2 1 0 -0 -0 -0 -1 -1 -2 -2 -1
8 9 10 10 10 11 11 11 11 12 12 14 15 17 17 17 17 18 20 21 22 23 24 25 25 25 25 24 23 23 22 21 20 19 18 15 12 8 6 3 2 1 0 0 -0 -1 -1 -1 -1
9 10 10 11 11 12 12 12 12 13 15 16 17 17 17 18 19 20 22 23 23 24 24 25 25 25 25 25 24 24 23 23 22 21 20 19 16 14 11 7 5 3 2 1 0 -0 -1 -1 -1
10 10 11 11 12 12 12 12 12 14 16 17 17 17 18 19 21 22 23 24 24 24 24 24 24 25 25 25 25 25 24 24 24 23 22 21 20 18 16 13 9 7 5 3 1 0 -0 -1 -1
11 10 10 11 12 12 11 11 12 15 16 17 17 17 19 20 22 23 24 24 24 24 24 24 24 24 24 24 24 25 25 25 24 24 24 23 22 20 19 17 15 12 9 5 3 1 1 0 -0
9 8 8 10 12 12 11 10 13 16 17 17 18 18 20 21 23 24 25 25 25 24 24 24 24 24 24 24 24 24 24 25 25 25 24 24 23 22 21 19 18 16 13 8 4 2 2 1 1
7 6 7 9 12 12 11 11 14 18 19 18 19 19 20 21 23 24 25 25 24 24 24 24 24 24 24 24 24 24 24 24 24 25 25 25 24 24 22 21 20 19 16 11 7 4 2 2 1
6 6 6 8 10 11 10 11 15 18 19 19 19 20 20 22 23 24 24 24 24 24 24 25 25 25 25 24 24 24 23 24 24 25 25 25 25 24 23 22 21 20 18 14 9 5 3 2 1
6 6 6 8 10 10 9 10 14 17 19 20 20 20 20 21 22 23 24 24 24 24 24 24 24 24 24 24 23 23 23 23 24 24 25 25 25 25 24 23 22 20 19 16 12 8 4 2 1
7 6 6 8 10 10 8 9 12 16 18 19 20 20 20 21 21 22 22 23 23 23 23 23 22 22 22 22 22 22 22 22 23 24 24 25 25 25 24 24 23 21 20 18 15 10 6 3 2
6 6 7 7 8 9 8 7 9 14 17 19 19 20 20 20 20 20 21 21 21 21 20 20 19 19 18 18 18 19 19 20 21 22 23 24 25 25 25 24 24 23 21 19 18 14 9 4 2
7 8 8 7 7 7 6 5 7 12 15 17 18 19 19 20 20 20 20 20 19 18 17 17 16 16 16 16 16 16 16 17 18 19 21 22 24 25 25 24 24 23 22 21 19 17 13 8 5
9 10 9 8 6 5 5 5 6 10 14 16 17 18 19 19 19 19 18 18 16 16 15 15 15 15 15 15 15 15 15 15 16 16 18 20 22 23 24 24 24 24 23 22 21 19 17 12 8
11 10 8 7 5 4 5 5 6 10 14 16 17 18 18 18 17 17 16 15 14 14 14 15 15 15 15 15 15 15 15 15 15 15 15 17 18 21 22 24 24 24 24 23 22 21 19 16 12
10 8 5 3 2 3 5 6 7 12 16 17 18 17 17 16 15 14 13 12 13 14 14 14 15 15 15 15 15 15 15 15 15 15 15 15 16 18 20 22 23 23 23 24 23 22 20 18 16
8 7 4 3 2 3 5 7 10 15 17 18 17 16 15 14 13 12 11 12 13 14 14 14 15 15 15 15 15 15 15 15 15 15 15 15 15 16 17 19 21 22 23 24 24 23 21 20 18
9 8 7 5 3 3 4 7 11 15 17 17 16 15 14 13 12 11 11 12 13 14 14 15 15 15 14 14 14 14 14 15 15 15 15 15 15 15 16 17 19 20 21 23 23 23 22 20 20
10 10 9 7 4 2 3 6 11 15 16 16 15 14 13 12 11 10 11 13 14 14 15 15 15 14 14 13 13 13 13 13 14 14 15 15 15 15 15 16 17 18 19 21 22 22 22 21 20
11 10 9 8 6 3 3 6 11 15 16 16 15 13 12 11 10 11 12 13 14 14 15 15 14 14 13 12 12 12 11 12 12 13 14 14 14 14 14 15 16 16 17 19 21 22 22 21 20
12 11 10 8 6 5 5 7 13 16 16 16 14 13 12 11 10 11 12 13 14 14 14 14 14 13 12 12 12 11 11 11 11 12 13 14 14 14 14 14 15 15 16 18 19 21 21 21 20